Terminal Aerodrome Forecast
Issued by NWS Columbia, SC

Home | Current Version | Previous Version | Text Only | Print | Product List | Glossary On
Versions: 1 2 3 4 5 6 7 8 9 10 11 12 13 14 15 16 17 18 19 20 21 22 23 24 25 26 27 28 29 30 31 32 33 34 35 36 37 38 39 40 41 42 43 44 45 46 47 48 49 50
000
FTAK31 PAJN 201700
TAFAGS
TAF
PAGS 201734Z 2018/2118 VRB06KT P6SM -RA SCT010 BKN035 OVC050
      TEMPO 2018/2022 29006KT 4SM -RA BR FEW006 SCT010 OVC025
     FM202200 VRB06KT 3SM RA BR FEW004 BKN010 OVC020
     FM210200 13015KT P6SM VCSH SCT025 OVC040
     FM210400 20004KT P6SM VCSH SCT030 OVC045
     FM211500 04012KT 4SM -RA BR FEW006 SCT010 OVC025
      AMD NOT SKED=

USA.gov is the U.S. government's official web portal to all federal, state and local government web resources and services.